| time (UTC) | temp C | wind direction | speed KPH | gust KPH | rain 1hr cm | rain 24hr cm | rain mn cm | humidity % | barometer mb |
| 20260903212204 | 13 | 267 | 12.9 | 20.9 | 0.43 | 1.17 | 1.04 | 95 | 1006.6 |
| 20260903211703 | 14 | 263 | 9.7 | 20.9 | 0.18 | 0.89 | 0.79 | 96 | 1006.6 |
| 20260903211204 | 14 | 234 | 8.0 | 20.9 | 0.10 | 0.81 | 0.71 | 96 | 1006.4 |
| 20260903210704 | 14 | 236 | 8.0 | 16.1 | 0.05 | 0.79 | 0.66 | 95 | 1006.4 |
| 20260903205704 | 14 | 201 | 9.7 | 19.3 | 0.00 | 0.71 | 0.61 | 95 | 1006.5 |
| 20260903205204 | 14 | 224 | 11.3 | 19.3 | 0.00 | 0.71 | 0.61 | 95 | 1006.5 |
| 20260903204704 | 14 | 220 | 16.1 | 25.7 | 0.00 | 0.71 | 0.61 | 96 | 1006.4 |
| 20260903204204 | 14 | 223 | 16.1 | 27.4 | 0.00 | 0.71 | 0.61 | 96 | 1006.3 |
| 20260903203704 | 14 | 226 | 9.7 | 20.9 | 0.00 | 0.71 | 0.61 | 96 | 1006.3 |
| 20260903202705 | 14 | 235 | 11.3 | 22.5 | 0.00 | 0.71 | 0.61 | 95 | 1006.4 |
| 20260903202205 | 14 | 221 | 11.3 | 19.3 | 0.00 | 0.71 | 0.61 | 95 | 1006.5 |
| 20260903201704 | 14 | 218 | 11.3 | 19.3 | 0.00 | 0.71 | 0.61 | 95 | 1006.5 |
| 20260903200704 | 14 | 219 | 11.3 | 24.1 | 0.00 | 0.71 | 0.61 | 95 | 1006.3 |
| 20260903200203 | 14 | 226 | 14.5 | 19.3 | 0.00 | 0.71 | 0.61 | 95 | 1006.4 |
| 20260903195704 | 14 | 248 | 11.3 | 22.5 | 0.00 | 0.71 | 0.61 | 96 | 1007.0 |
| 20260903195204 | 14 | 223 | 11.3 | 19.3 | 0.00 | 0.71 | 0.61 | 95 | 1006.7 |
| 20260903194704 | 13 | 233 | 11.3 | 19.3 | 0.00 | 0.71 | 0.61 | 96 | 1006.9 |
| 20260903193704 | 13 | 224 | 11.3 | 22.5 | 0.00 | 0.71 | 0.61 | 96 | 1006.9 |
| 20260903193204 | 13 | 225 | 12.9 | 24.1 | 0.00 | 0.71 | 0.61 | 96 | 1007.0 |
| 20260903192704 | 13 | 228 | 11.3 | 24.1 | 0.03 | 0.71 | 0.61 | 96 | 1006.9 |
| 20260903192204 | 13 | 234 | 9.7 | 19.3 | 0.03 | 0.71 | 0.61 | 96 | 1007.0 |
| 20260903191703 | 13 | 227 | 14.5 | 24.1 | 0.03 | 0.71 | 0.61 | 96 | 1007.2 |
| 20260903191204 | 13 | 221 | 16.1 | 24.1 | 0.03 | 0.71 | 0.61 | 96 | 1007.2 |
| 20260903190703 | 13 | 215 | 12.9 | 27.4 | 0.03 | 0.74 | 0.61 | 96 | 1007.2 |
| 20260903190204 | 13 | 242 | 9.7 | 20.9 | 0.03 | 0.74 | 0.61 | 96 | 1007.3 |
| 20260903185704 | 13 | 230 | 9.7 | 20.9 | 0.03 | 0.74 | 0.61 | 96 | 1007.1 |
| 20260903185205 | 13 | 231 | 11.3 | 19.3 | 0.03 | 0.74 | 0.61 | 96 | 1007.3 |
| 20260903184204 | 13 | 228 | 11.3 | 24.1 | 0.05 | 0.74 | 0.61 | 96 | 1007.3 |
| 20260903183204 | 13 | 237 | 11.3 | 20.9 | 0.05 | 0.74 | 0.61 | 95 | 1007.8 |
| 20260903182704 | 13 | 238 | 11.3 | 20.9 | 0.03 | 0.71 | 0.58 | 95 | 1007.7 |
| 20260903182204 | 13 | 230 | 8.0 | 16.1 | 0.05 | 0.71 | 0.58 | 95 | 1007.6 |
| 20260903181703 | 13 | 227 | 11.3 | 19.3 | 0.05 | 0.71 | 0.58 | 95 | 1007.8 |
| 20260903181204 | 13 | 210 | 9.7 | 19.3 | 0.05 | 0.71 | 0.58 | 95 | 1007.7 |
| 20260903180204 | 13 | 217 | 9.7 | 19.3 | 0.08 | 0.71 | 0.58 | 95 | 1007.8 |
| 20260903175204 | 13 | 219 | 9.7 | 20.9 | 0.10 | 0.71 | 0.58 | 95 | 1007.9 |
| 20260903174204 | 13 | 223 | 11.3 | 24.1 | 0.10 | 0.71 | 0.56 | 95 | 1008.3 |
| 20260903173704 | 13 | 218 | 16.1 | 32.2 | 0.13 | 0.71 | 0.56 | 95 | 1008.3 |
| 20260903173204 | 13 | 221 | 16.1 | 25.7 | 0.13 | 0.71 | 0.56 | 95 | 1008.4 |
| 20260903172704 | 13 | 225 | 12.9 | 24.1 | 0.15 | 0.71 | 0.56 | 95 | 1008.4 |
| 20260903172204 | 13 | 216 | 16.1 | 25.7 | 0.15 | 0.69 | 0.53 | 95 | 1008.5 |
| 20260903171705 | 13 | 221 | 16.1 | 24.1 | 0.15 | 0.69 | 0.53 | 95 | 1008.4 |
| 20260903171204 | 13 | 215 | 16.1 | 25.7 | 0.15 | 0.66 | 0.51 | 95 | 1008.5 |
| 20260903170705 | 14 | 217 | 12.9 | 25.7 | 0.18 | 0.66 | 0.51 | 95 | 1008.4 |
| 20260903165204 | 14 | 223 | 11.3 | 22.5 | 0.18 | 0.61 | 0.48 | 95 | 1008.5 |
| 20260903164204 | 14 | 214 | 14.5 | 25.7 | 0.23 | 0.61 | 0.46 | 94 | 1008.6 |
| 20260903163704 | 14 | 243 | 19.3 | 27.4 | 0.23 | 0.58 | 0.43 | 94 | 1008.7 |
| 20260903162704 | 15 | 234 | 11.3 | 20.9 | 0.20 | 0.56 | 0.43 | 94 | 1008.9 |
| 20260903162204 | 15 | 238 | 8.0 | 14.5 | 0.18 | 0.53 | 0.41 | 94 | 1008.9 |
| 20260903161204 | 15 | 233 | 14.5 | 25.7 | 0.15 | 0.51 | 0.36 | 94 | 1008.9 |
| 20260903160704 | 15 | 238 | 16.1 | 24.1 | 0.13 | 0.48 | 0.33 | 93 | 1009.0 |
| 20260903160204 | 15 | 221 | 11.3 | 22.5 | 0.10 | 0.46 | 0.33 | 94 | 1009.0 |
| 20260903155704 | 15 | 230 | 11.3 | 20.9 | 0.08 | 0.43 | 0.30 | 93 | 1009.0 |
| 20260903155203 | 15 | 238 | 14.5 | 24.1 | 0.08 | 0.43 | 0.30 | 93 | 1009.1 |
| 20260903154704 | 15 | 234 | 14.5 | 25.7 | 0.05 | 0.41 | 0.25 | 93 | 1009.2 |
| 20260903154204 | 15 | 227 | 11.3 | 20.9 | 0.03 | 0.38 | 0.23 | 93 | 1009.0 |
| 20260903153704 | 15 | 230 | 11.3 | 22.5 | 0.00 | 0.36 | 0.23 | 93 | 1009.1 |
| 20260903152704 | 15 | 223 | 14.5 | 25.7 | 0.03 | 0.36 | 0.23 | 93 | 1009.2 |
| 20260903150704 | 15 | 236 | 11.3 | 19.3 | 0.03 | 0.36 | 0.23 | 93 | 1009.3 |
| 20260903145704 | 15 | 237 | 11.3 | 19.3 | 0.05 | 0.36 | 0.23 | 93 | 1009.4 |
| 20260903145203 | 15 | 236 | 9.7 | 20.9 | 0.05 | 0.36 | 0.23 | 93 | 1009.6 |
| 20260903144703 | 15 | 240 | 12.9 | 27.4 | 0.05 | 0.36 | 0.23 | 93 | 1009.7 |
| 20260903143204 | 15 | 245 | 14.5 | 20.9 | 0.05 | 0.36 | 0.23 | 93 | 1009.6 |
| 20260903142703 | 15 | 235 | 11.3 | 22.5 | 0.03 | 0.33 | 0.20 | 93 | 1009.6 |
| 20260903142204 | 15 | 243 | 9.7 | 22.5 | 0.03 | 0.33 | 0.20 | 93 | 1009.7 |
| 20260903141704 | 15 | 224 | 12.9 | 19.3 | 0.03 | 0.33 | 0.20 | 93 | 1009.7 |
| 20260903141203 | 15 | 209 | 16.1 | 19.3 | 0.03 | 0.33 | 0.20 | 93 | 1009.7 |
| 20260903140703 | 15 | 245 | 19.3 | 32.2 | 0.05 | 0.33 | 0.20 | 93 | 1009.7 |
| 20260903135703 | 15 | 262 | 14.5 | 25.7 | 0.03 | 0.33 | 0.18 | 93 | 1010.1 |
| 20260903135204 | 15 | 229 | 12.9 | 22.5 | 0.03 | 0.33 | 0.18 | 93 | 1010.1 |
| 20260903134705 | 15 | 218 | 14.5 | 32.2 | 0.03 | 0.33 | 0.18 | 93 | 1010.1 |
| 20260903134204 | 15 | 222 | 11.3 | 22.5 | 0.03 | 0.33 | 0.18 | 93 | 1010.2 |
| 20260903133203 | 15 | 232 | 16.1 | 25.7 | 0.05 | 0.33 | 0.18 | 92 | 1010.3 |
| 20260903132704 | 15 | 245 | 16.1 | 24.1 | 0.05 | 0.33 | 0.18 | 92 | 1010.5 |
| 20260903132203 | 15 | 243 | 14.5 | 25.7 | 0.05 | 0.33 | 0.18 | 92 | 1010.4 |
| 20260903131204 | 15 | 230 | 12.9 | 25.7 | 0.05 | 0.33 | 0.18 | 92 | 1010.5 |
| 20260903130703 | 15 | 234 | 17.7 | 29.0 | 0.03 | 0.30 | 0.15 | 91 | 1010.6 |
| 20260903125704 | 15 | 235 | 14.5 | 22.5 | 0.03 | 0.30 | 0.15 | 91 | 1010.4 |
| 20260903125204 | 15 | 233 | 14.5 | 32.2 | 0.03 | 0.30 | 0.15 | 90 | 1010.5 |
| 20260903124704 | 15 | 237 | 14.5 | 24.1 | 0.03 | 0.30 | 0.15 | 90 | 1010.6 |
| 20260903124204 | 16 | 239 | 11.3 | 20.9 | 0.03 | 0.30 | 0.15 | 90 | 1010.6 |
| 20260903123704 | 16 | 230 | 11.3 | 22.5 | 0.03 | 0.30 | 0.15 | 89 | 1010.6 |
| 20260903123204 | 16 | 232 | 11.3 | 24.1 | 0.00 | 0.28 | 0.15 | 88 | 1010.5 |
| 20260903122703 | 16 | 246 | 11.3 | 24.1 | 0.00 | 0.28 | 0.15 | 87 | 1010.3 |
| 20260903122204 | 16 | 257 | 14.5 | 22.5 | 0.00 | 0.28 | 0.15 | 87 | 1010.3 |
| 20260903121704 | 16 | 245 | 11.3 | 25.7 | 0.00 | 0.28 | 0.15 | 86 | 1010.2 |
| 20260903121203 | 16 | 239 | 14.5 | 27.4 | 0.00 | 0.28 | 0.15 | 85 | 1010.3 |
| 20260903120704 | 16 | 237 | 19.3 | 33.8 | 0.00 | 0.28 | 0.15 | 85 | 1010.5 |
| 20260903120203 | 16 | 243 | 17.7 | 27.4 | 0.00 | 0.28 | 0.15 | 85 | 1010.3 |
| 20260903115704 | 16 | 248 | 19.3 | 32.2 | 0.00 | 0.28 | 0.15 | 85 | 1010.4 |
| 20260903115203 | 16 | 239 | 19.3 | 33.8 | 0.00 | 0.28 | 0.15 | 85 | 1010.1 |
| 20260903114704 | 17 | 244 | 16.1 | 32.2 | 0.00 | 0.28 | 0.15 | 85 | 1010.0 |
| 20260903114204 | 17 | 238 | 16.1 | 29.0 | 0.00 | 0.28 | 0.15 | 85 | 1010.0 |
| 20260903113704 | 16 | 242 | 19.3 | 32.2 | 0.00 | 0.28 | 0.15 | 84 | 1009.9 |
| 20260903113204 | 17 | 230 | 20.9 | 32.2 | 0.00 | 0.28 | 0.15 | 85 | 1009.9 |
| 20260903112704 | 17 | 230 | 16.1 | 29.0 | 0.00 | 0.28 | 0.15 | 86 | 1009.8 |
| 20260903112204 | 17 | 242 | 17.7 | 35.4 | 0.00 | 0.28 | 0.15 | 86 | 1010.1 |
| 20260903111704 | 17 | 244 | 16.1 | 32.2 | 0.00 | 0.28 | 0.15 | 87 | 1010.1 |
| 20260903111203 | 16 | 233 | 16.1 | 35.4 | 0.00 | 0.28 | 0.15 | 88 | 1010.1 |
| 20260903110704 | 16 | 239 | 16.1 | 32.2 | 0.00 | 0.28 | 0.15 | 87 | 1010.1 |
| 20260903110204 | 16 | 237 | 16.1 | 29.0 | 0.00 | 0.28 | 0.15 | 88 | 1010.0 |
| 20260903105703 | 16 | 260 | 19.3 | 29.0 | 0.00 | 0.28 | 0.15 | 88 | 1010.0 |
| 20260903105204 | 17 | 244 | 16.1 | 25.7 | 0.00 | 0.28 | 0.15 | 88 | 1009.9 |
| 20260903104703 | 17 | 238 | 14.5 | 32.2 | 0.00 | 0.28 | 0.15 | 88 | 1009.7 |
| 20260903104203 | 17 | 238 | 19.3 | 32.2 | 0.00 | 0.28 | 0.15 | 89 | 1009.8 |
| 20260903103704 | 17 | 241 | 16.1 | 35.4 | 0.00 | 0.28 | 0.15 | 89 | 1009.6 |
| 20260903103203 | 17 | 237 | 20.9 | 35.4 | 0.00 | 0.28 | 0.15 | 89 | 1009.6 |
| 20260903102205 | 17 | 228 | 20.9 | 33.8 | 0.00 | 0.28 | 0.15 | 91 | 1009.3 |
| 20260903101704 | 17 | 225 | 14.5 | 29.0 | 0.00 | 0.28 | 0.15 | 92 | 1009.3 |
| 20260903101204 | 17 | 231 | 19.3 | 29.0 | 0.03 | 0.28 | 0.15 | 92 | 1009.3 |
| 20260903100703 | 17 | 248 | 16.1 | 25.7 | 0.03 | 0.28 | 0.15 | 93 | 1009.2 |
| 20260903100204 | 17 | 251 | 14.5 | 24.1 | 0.05 | 0.28 | 0.15 | 94 | 1009.5 |
| 20260903095704 | 16 | 242 | 16.1 | 29.0 | 0.05 | 0.28 | 0.15 | 94 | 1009.5 |
| 20260903095204 | 16 | 244 | 16.1 | 27.4 | 0.05 | 0.28 | 0.15 | 94 | 1009.9 |
| 20260903094704 | 16 | 216 | 11.3 | 24.1 | 0.05 | 0.28 | 0.15 | 95 | 1009.9 |
| 20260903094204 | 16 | 242 | 9.7 | 19.3 | 0.05 | 0.28 | 0.15 | 95 | 1009.9 |
| 20260903093204 | 16 | 219 | 16.1 | 22.5 | 0.05 | 0.28 | 0.15 | 95 | 1010.0 |
| 20260903092704 | 15 | 247 | 16.1 | 25.7 | 0.05 | 0.28 | 0.15 | 95 | 1010.1 |
| 20260903092204 | 15 | 214 | 12.9 | 24.1 | 0.05 | 0.28 | 0.15 | 94 | 1010.2 |
| 20260903091703 | 15 | 190 | 12.9 | 24.1 | 0.05 | 0.28 | 0.15 | 94 | 1010.1 |
| 20260903090703 | 15 | 201 | 14.5 | 24.1 | 0.05 | 0.25 | 0.13 | 94 | 1010.1 |
| 20260903090203 | 15 | 203 | 14.5 | 25.7 | 0.05 | 0.25 | 0.10 | 94 | 1010.2 |
| 20260903085203 | 15 | 196 | 11.3 | 19.3 | 0.05 | 0.25 | 0.10 | 94 | 1010.2 |
| 20260903084704 | 15 | 204 | 11.3 | 19.3 | 0.05 | 0.25 | 0.10 | 94 | 1010.1 |
| 20260903084204 | 14 | 218 | 11.3 | 22.5 | 0.05 | 0.25 | 0.10 | 95 | 1010.3 |
| 20260903083704 | 14 | 192 | 8.0 | 14.5 | 0.05 | 0.28 | 0.10 | 94 | 1010.3 |
| 20260903083204 | 14 | 192 | 6.4 | 9.7 | 0.05 | 0.28 | 0.10 | 94 | 1010.4 |
| 20260903081704 | 14 | 226 | 8.0 | 14.5 | 0.05 | 0.30 | 0.10 | 94 | 1010.3 |
| 20260903081204 | 14 | 206 | 8.0 | 12.9 | 0.05 | 0.30 | 0.08 | 94 | 1010.4 |
| 20260903080703 | 14 | 188 | 11.3 | 19.3 | 0.03 | 0.28 | 0.05 | 94 | 1010.6 |
| 20260903080203 | 14 | 216 | 8.0 | 14.5 | 0.00 | 0.28 | 0.05 | 94 | 1010.5 |
| 20260903075703 | 14 | 215 | 9.7 | 14.5 | 0.00 | 0.28 | 0.05 | 94 | 1010.5 |
| 20260903075204 | 14 | 214 | 8.0 | 14.5 | 0.00 | 0.28 | 0.05 | 94 | 1010.5 |
| 20260903074704 | 14 | 212 | 9.7 | 16.1 | 0.00 | 0.28 | 0.05 | 94 | 1010.4 |
| 20260903073704 | 14 | 228 | 8.0 | 16.1 | 0.00 | 0.28 | 0.05 | 94 | 1010.7 |
| 20260903072703 | 14 | 216 | 8.0 | 14.5 | 0.00 | 0.28 | 0.05 | 94 | 1010.6 |
| 20260903072205 | 14 | 219 | 8.0 | 14.5 | 0.00 | 0.28 | 0.05 | 94 | 1010.5 |
| 20260903071704 | 14 | 225 | 9.7 | 16.1 | 0.00 | 0.28 | 0.05 | 94 | 1010.6 |
| 20260903070204 | 14 | 220 | 6.4 | 12.9 | 0.00 | 0.28 | 0.05 | 94 | 1010.7 |
| 20260903065705 | 14 | 211 | 8.0 | 12.9 | 0.03 | 0.28 | 0.05 | 94 | 1010.8 |
| 20260903065204 | 13 | 224 | 8.0 | 12.9 | 0.03 | 0.28 | 0.05 | 94 | 1010.8 |
| 20260903064705 | 13 | 223 | 8.0 | 16.1 | 0.03 | 0.28 | 0.05 | 94 | 1010.8 |
| 20260903063704 | 13 | 209 | 6.4 | 11.3 | 0.03 | 0.28 | 0.05 | 94 | 1010.4 |
| 20260903063204 | 13 | 215 | 6.4 | 11.3 | 0.03 | 0.28 | 0.05 | 94 | 1010.7 |
| 20260903062703 | 12 | 220 | 6.4 | 9.7 | 0.03 | 0.28 | 0.05 | 94 | 1010.7 |
| 20260903062204 | 12 | 201 | 6.4 | 12.9 | 0.03 | 0.28 | 0.05 | 94 | 1010.5 |
| 20260903061705 | 12 | 211 | 4.8 | 9.7 | 0.03 | 0.28 | 0.05 | 93 | 1010.5 |
| 20260903061203 | 12 | 204 | 3.2 | 8.0 | 0.03 | 0.28 | 0.05 | 93 | 1010.4 |
| 20260903060705 | 12 | 201 | 3.2 | 8.0 | 0.03 | 0.28 | 0.05 | 93 | 1010.2 |
| 20260903020704 | 13 | 266 | 9.7 | 16.1 | 0.00 | 0.25 | 0.03 | 95 | 1010.9 |
| 20260903020204 | 13 | 263 | 9.7 | 14.5 | 0.00 | 0.25 | 0.03 | 95 | 1010.6 |
| 20260903015203 | 13 | 252 | 9.7 | 19.3 | 0.00 | 0.25 | 0.03 | 95 | 1010.6 |
| 20260903014704 | 13 | 253 | 9.7 | 19.3 | 0.00 | 0.25 | 0.03 | 95 | 1010.6 |
| 20260903014203 | 14 | 256 | 11.3 | 19.3 | 0.00 | 0.25 | 0.03 | 95 | 1010.5 |
| 20260903013704 | 14 | 247 | 8.0 | 12.9 | 0.00 | 0.25 | 0.03 | 95 | 1010.4 |
| 20260903013204 | 14 | 242 | 9.7 | 14.5 | 0.00 | 0.25 | 0.03 | 95 | 1010.5 |
| 20260903012204 | 14 | 267 | 9.7 | 14.5 | 0.00 | 0.25 | 0.03 | 95 | 1010.4 |
| 20260903011703 | 14 | 258 | 9.7 | 14.5 | 0.00 | 0.25 | 0.03 | 96 | 1010.5 |
| 20260903011204 | 15 | 248 | 8.0 | 16.1 | 0.00 | 0.25 | 0.03 | 96 | 1010.4 |
| 20260903010704 | 15 | 245 | 6.4 | 14.5 | 0.00 | 0.25 | 0.03 | 96 | 1010.4 |
| 20260903010204 | 15 | 271 | 8.0 | 12.9 | 0.00 | 0.25 | 0.03 | 96 | 1010.3 |
| 20260903005704 | 15 | 255 | 11.3 | 16.1 | 0.00 | 0.25 | 0.03 | 96 | 1010.4 |
| 20260903005203 | 15 | 263 | 11.3 | 19.3 | 0.00 | 0.25 | 0.03 | 96 | 1010.3 |
| 20260903004703 | 14 | 253 | 8.0 | 19.3 | 0.03 | 0.25 | 0.03 | 96 | 1010.4 |
| 20260903004204 | 14 | 250 | 9.7 | 19.3 | 0.03 | 0.25 | 0.03 | 95 | 1010.4 |
| 20260903003704 | 14 | 244 | 8.0 | 14.5 | 0.03 | 0.25 | 0.03 | 95 | 1010.2 |
| 20260903003204 | 14 | 252 | 8.0 | 14.5 | 0.03 | 0.25 | 0.03 | 95 | 1010.2 |
| 20260903002704 | 15 | 251 | 4.8 | 11.3 | 0.03 | 0.25 | 0.03 | 95 | 1010.2 |
| 20260903002204 | 15 | 256 | 8.0 | 14.5 | 0.03 | 0.25 | 0.03 | 95 | 1010.2 |
| 20260903001704 | 15 | 251 | 6.4 | 14.5 | 0.03 | 0.25 | 0.03 | 95 | 1010.3 |
| 20260903001204 | 15 | 251 | 8.0 | 11.3 | 0.03 | 0.25 | 0.03 | 95 | 1010.3 |
| 20260903000704 | 15 | 239 | 6.4 | 16.1 | 0.03 | 0.25 | 0.03 | 95 | 1010.2 |
| 20260903000205 | 15 | 241 | 8.0 | 16.1 | 0.03 | 0.25 | 0.03 | 95 | 1010.2 |
| 20260902235704 | 15 | 239 | 8.0 | 11.3 | 0.03 | 0.25 | 0.03 | 95 | 1010.2 |
| 20260902235204 | 15 | 243 | 8.0 | 14.5 | 0.03 | 0.25 | 0.03 | 95 | 1010.1 |
| 20260902234704 | 15 | 250 | 8.0 | 14.5 | 0.00 | 0.23 | 0.00 | 95 | 1010.0 |
| 20260902233703 | 15 | 264 | 8.0 | 16.1 | 0.00 | 0.23 | 0.00 | 94 | 1010.0 |
| 20260902233203 | 15 | 259 | 8.0 | 16.1 | 0.00 | 0.23 | 0.00 | 95 | 1009.9 |
| 20260902232704 | 15 | 257 | 11.3 | 19.3 | 0.00 | 0.23 | 0.00 | 95 | 1009.9 |
| 20260902232204 | 15 | 262 | 9.7 | 19.3 | 0.00 | 0.23 | 0.00 | 95 | 1010.0 |
| 20260902231704 | 15 | 264 | 11.3 | 20.9 | 0.00 | 0.23 | 0.00 | 95 | 1010.0 |
| 20260902231203 | 15 | 264 | 14.5 | 27.4 | 0.00 | 0.23 | 0.00 | 95 | 1009.9 |
| 20260902230205 | 15 | 251 | 16.1 | 24.1 | 0.00 | 0.23 | 0.00 | 95 | 1009.8 |
| 20260902225705 | 15 | 247 | 12.9 | 22.5 | 0.00 | 0.23 | 0.23 | 95 | 1009.8 |
| 20260902225204 | 15 | 253 | 12.9 | 20.9 | 0.03 | 0.23 | 0.23 | 96 | 1009.7 |
| 20260902223704 | 15 | 247 | 16.1 | 20.9 | 0.08 | 0.23 | 0.23 | 96 | 1009.6 |
| 20260902222704 | 15 | 255 | 14.5 | 24.1 | 0.08 | 0.23 | 0.23 | 96 | 1009.6 |
| 20260902222204 | 15 | 254 | 14.5 | 20.9 | 0.08 | 0.23 | 0.23 | 96 | 1009.6 |
| 20260902221704 | 15 | 266 | 9.7 | 19.3 | 0.08 | 0.23 | 0.23 | 95 | 1009.7 |
| 20260902221204 | 15 | 253 | 9.7 | 14.5 | 0.08 | 0.23 | 0.23 | 95 | 1009.7 |
| 20260902215704 | 15 | 245 | 9.7 | 16.1 | 0.08 | 0.23 | 0.23 | 95 | 1009.6 |
| 20260902215204 | 15 | 252 | 11.3 | 19.3 | 0.05 | 0.23 | 0.23 | 95 | 1009.6 |
| 20260902214704 | 15 | 252 | 11.3 | 19.3 | 0.05 | 0.20 | 0.20 | 95 | 1009.7 |
| 20260902214204 | 15 | 258 | 11.3 | 22.5 | 0.03 | 0.18 | 0.18 | 95 | 1009.7 |
| 20260902213204 | 15 | 264 | 14.5 | 20.9 | 0.00 | 0.15 | 0.15 | 95 | 1009.4 |
| 20260902212704 | 15 | 247 | 12.9 | 20.9 | 0.00 | 0.15 | 0.15 | 95 | 1009.4 |